Regional Weather Roundup
Issued by NWS

Home | Current Version | Previous Version | Text Only | Print | Product List | Glossary On
Versions: 1 2 3 4 5 6 7 8 9 10 11 12 13 14 15 16 17 18 19 20 21 22 23 24 25 26 27
000
ASUS45 KSLC 161610
RWRUT

UTAH REGIONAL WEATHER ROUNDUP
NATIONAL WEATHER SERVICE SALT LAKE CITY UT
1000 AM MDT WED APR 16 2014

UTZ001>011-023>025-161700-

NORTHERN UTAH

CITY           SKY/WX    TMP DP  RH WIND       PRES   REMARKS
HILL AFB       PTSUNNY   46  19  34 W3        30.01S
LOGAN          SUNNY     41  23  48 VRB3      30.03S
OGDEN          PTSUNNY   47  23  38 W8        30.01R
PROVO AIRPORT  PTSUNNY   50  25  37 NW13      30.00
SALT LAKE CITY PTSUNNY   50  22  33 N7        30.01S
VERNAL         MOSUNNY   49  14  24 E9        29.96S
WENDOVER       CLOUDY    50  12  22 CALM      30.03S
HEBER CITY     MOSUNNY   45  12  26 N3        29.98F
WEST JORDAN    SUNNY     48  23  37 NW8       30.01S

$$

UTZ012>022-026-027-161700-

SOUTHERN UTAH

CITY           SKY/WX    TMP DP  RH WIND       PRES   REMARKS
BRYCE CANYON   PTSUNNY   44  22  41 E5        30.02R
CEDAR CITY     PTSUNNY   48  21  34 VRB5      29.99R
MILFORD        CLOUDY    50  21  32 N14       29.99F
MOAB/CYNLANDS  SUNNY     57  11  16 E18       29.90R
PRICE          CLOUDY    50   9  19 N15       29.96R
ST GEORGE      MOSUNNY   61  18  18 SE3       29.90S
KANAB            N/A     54  16  22 CALM      29.97S

$$

REGIONAL REPORTS     COLORADO/ARIZONA

CITY           SKY/WX    TMP DP  RH WIND       PRES   REMARKS
CRAIG, CO      SUNNY     43  13  29 NW12      30.00R
GRAND JUNCTION PTSUNNY   51  16  24 NE16      29.95R
RIFLE          PTSUNNY   46  15  28 W6        29.98S
MONTROSE       CLOUDY    50  19  29 VRB5      29.97R
CORTEZ         SUNNY     52  17  25 CALM      29.92S
PAGE, AZ       PTSUNNY   60  13  15 NW6       29.90R
GRAND CANYON   MOSUNNY   57   7  13 W7        29.99S
KINGMAN        SUNNY     73   4   7 CALM      29.86S
FLAGSTAFF      SUNNY     57  13  17 W7G18     29.99S

$$

REGIONAL REPORTS    NEVADA/IDAHO/WYOMING

CITY           SKY/WX    TMP DP  RH WIND       PRES   REMARKS
LAS VEGAS, NV  PTSUNNY   69  14  12 CALM      29.80R
ELY            CLOUDY    41  19  41 N13       30.07R
ELKO           CLOUDY    43  30  60 SW6       30.07S
POCATELLO, ID  SUNNY     43  17  35 NW5       30.05S
BURLEY         MOSUNNY   45  18  34 SW6       30.04S
EVANSTON, WY   PTSUNNY   37  12  35 W7        29.99F WCI  32
ROCK SPRINGS   SUNNY     38   9  30 NW15      29.99R WCI  29

$$



USA.gov is the U.S. government's official web portal to all federal, state and local government web resources and services.